Weather in Aserkhovo

Russia / Vladimir Oblast     55°56′49″N   40°14′56″E
temp.,
°C
wind,
m/s
gust,
m/s
humid.,
%
clouds,
%
prec.,
mm/h
press.,
hPa
HPBL,
m
25 february, thu
thu2500:00−16s5995100 0.4 1029423
03:00−15ssw5995100 1.1 1025422
06:00−13s61195100 2.8 1019423
09:00−9ssw51194100 4.9 1014487
12:00−3ssw4797100 1.5 1011275
15:00+2wnw412100100 1.7 1011426
18:00+1wnw41199100 0.1 1011410
21:00+1w4999100 0.1 1012349
26 february, fri
fri2600:00+1w3897100 0.0 1011273
03:00+1wsw2599100 0.2 1011156
06:00+1wsw37100100 1.0 1008218
09:00+1wsw411100100 1.9 1006308
12:00+2wsw513100100 0.2 1003429
15:00+2wsw515100100 1.1 1000519
18:00+2w51498100 0.8 999785
21:00+1w61397100 0.9 999913
27 february, sat
sat2700:00+1w61398100 0.1 997843
03:00+1w61298100 0.3 997764
06:000w61397100 0.3 997831
09:00−8nnw61189100 1.6 999637
12:00−9nnw61090100 0.2 1001651
15:00−9nnw61089100 0.3 1005730
18:00−10n51191100 0.1 1008645
21:00−12n41094100 0.1 1011511
28 february, sun
sun2800:00−14nnw399597 0.0 1012285
03:00−15nnw389573 0.0 1014230
06:00−16nnw38968 0.0 1015188
09:00−14n479329 0.0 1017312
12:00−11nnw369291 0.0 1018433
15:00−9nnw479095 0.1 1019546
18:00−11n249598 0.0 102071
21:00−12n239684 0.1 102226
1 march, mon
mon100:00−11n2297100 0.1 102427
03:00−11wnw1196100 0.1 102521
06:00−10w229796 0.1 102523
09:00−8sw249796 0.1 1024141
12:00−3sw489598 0.0 1022375
15:00−1w599499 0.1 1020638
18:000wsw51295100 0.1 1016658
21:00+1w61398100 0.4 1014686